Tracking 18816 objects as of 18-October-2017
HD Live streaming from Space Station
objects crossing your sky now

UNHA 3 R/B

Track UNHA 3 R/B now!
10-day predictions


NORAD ID: 39027
Int'l Code: 2012-072B
Perigee: 487.6 km
Apogee: 569.5 km
Inclination: 97.3 °
Period: 95.1 minutes
Semi major axis: 6899 km
RCS: 1.274 m2 (large)
Launch date: December 12, 2012
Source: North Korea (NKOR)
Launch site: Yunsong, DPRK (YUN)

Note: This is a ROCKET BODY
aabbcc
Your satellite tracking list
Your tracking list is empty





NASA's NSSDC Master Catalog

Two Line Element Set (TLE):
1 39027U 12072B   17291.59930084  .00000661  00000-0  37494-4 0  9995
2 39027  97.2638 291.1412 0059363 163.5442 196.7736 15.14861980267646
Source of the keplerian elements: AFSPC